SCP
0 0 0 0 0 0 0 0 0 0 0 0 0 0 0 0 0 0 0 0 0 0 0 0 0 0 0 0 0 0 0 0
0 0 0 0 0 0 0 0 0 0 0 0 0 0 0 0 0 0 0 0 0 0 0 0 0 0 0 0 0 0 0 0
0 0 0 0 0 0 0 0 0 0 0 0 0 0 0 0 0 0 0 0 0 0 0 0 0 0 0 0 0 0 0 0
0 0 0 0 0 0 0 0 0 0 0 0 0 0 0 0 0 0 0 0 0 0 0 0 0 -0 -0 -0 -0 -0 0 0
0 0 0 0 0 0 0 0 0 0 0 0 0 0 0 0 0 0 0 0 0 0 0 0 -0 -0 -0 -0 0 -0 0 0
0 0 0 0 0 0 0 0 0 0 0 0 0 0 0 0 0 0 0 0 0 0 0 0 0 0 0 0 0 0 0 0
0 0 0 0 0 0 0 0 0 0 0 0 0 0 0 0 0 0 0 0 0 0 0 0 0 0 0 0 0 0 0 0
0 0 0 0 0 0 0 0 0 0 0 0 0 0 0 0 0 0 0 0 0 0 0 0 0 0 0 0 0 0 0 0
0 0 0 0 0 0 0 0 0 0 0 0 0 0 0 0 0 0 0 0 0 0 0 0 0 0 0 0 0 0 0 0
0 0 0 0 0 -0 0 0 0 0 0 0 0 0 0 0 0 0 0 0 0 0 0 0 0 0 0 0 0 0 0 0
0 0 -0 -0 -0 -0 0 0 0 0 0 0 0 0 0 0 0 0 0 0 0 0 0 0 0 0 0 0 0 0 0 0
0 0 -0 -0 -0 0 0 0 0 0 0 0 0 0 0 0 0 0 0 0 0 0 0 0 0 0 0 0 0 0 0 0
0 0 -0 -0 0 0 0 0 0 0 0 0 0 0 0 0 0 0 0 0 0 0 0 0 0 0 0 0 0 0 0 0
0 -0 -0 0 0 0 0 0 0 0 0 0 0 0 0 0 0 0 0 0 0 0 0 0 0 0 0 0 0 0 0 0
0 -0 0 0 0 0 0 0 0 0 0 0 0 0 0 0 0 0 0 0 0 0 0 0 0 0 0 0 0 0 0 0
0 0 0 0 0 0 0 0 0 0 0 0 0 0 0 0 0 0 0 0 0 0 0 0 0 0 0 0 0 0 0 0
0 0 0 0 0 0 0 0 0 0 0 0 0 0 0 0 0 0 0 0 0 0 0 0 0 0 0 0 0 0 0 0
0 0 0 0 0 0 0 0 0 0 0 0 0 0 0 0 0 0 0 0 0 0 0 0 0 -0 -0 -0 0 0 0 0
0 0 0 0 0 0 0 0 0 0 0 0 0 0 0 0 0 0 0 0 0 0 0 0 0 0 0 0 0 0 0 0
0 0 0 0 0 0 0 0 0 0 0 0 0 0 0 0 0 0 0 0 0 0 0 0 0 0 0 0 0 0 0 0
Wind_Speed_500mb
16 19 17 20 20 24 34 31 36 35 35 38 37 35 34 35 26 20 18 21 25 25 23 13 7 5 3 5 6 8 14 20
15 17 17 27 33 32 36 32 35 37 40 41 33 27 31 32 28 25 22 20 19 13 12 9 8 5 8 15 18 20 18 15
19 24 28 31 35 33 31 39 39 37 36 32 33 33 35 39 35 24 21 18 12 12 17 17 15 16 20 24 28 26 22 16
23 23 30 35 34 35 38 36 34 31 28 24 27 35 39 37 28 20 22 15 12 13 17 17 13 14 12 14 12 5 7 6
28 28 29 28 30 34 32 28 31 32 24 28 40 46 35 33 27 20 20 21 13 12 17 19 19 18 19 18 15 12 10 6
25 21 21 25 27 31 29 25 25 32 25 34 37 36 35 36 35 28 26 25 26 23 23 21 17 15 18 22 18 11 9 13
21 23 26 27 26 31 27 24 22 22 30 34 34 30 32 38 41 36 30 26 24 23 24 24 20 15 11 9 11 13 11 15
25 24 23 27 32 33 24 25 27 30 30 31 29 31 29 32 32 32 33 34 28 25 27 29 29 28 26 25 24 29 22 21
25 24 28 28 28 27 25 24 26 26 27 25 27 31 29 28 28 35 38 39 40 39 40 41 41 41 39 37 34 33 30 28
22 24 27 26 27 29 28 28 28 27 26 26 33 32 30 31 34 35 35 35 38 40 41 40 38 39 40 39 38 36 33 33
21 25 29 29 23 24 26 33 34 33 40 42 41 36 32 28 28 31 32 33 32 31 32 31 36 37 44 56 50 54 51 59
21 20 26 25 28 26 26 32 27 27 30 32 32 32 31 28 27 32 33 33 35 42 47 47 55 67 55 52 54 61 61 58
15 22 22 22 24 24 24 30 26 24 29 29 25 24 24 28 41 49 55 58 73 79 77 67 57 52 47 42 38 36 34 36
11 16 18 16 18 21 22 25 19 27 30 39 38 39 38 47 56 59 60 61 62 55 51 55 48 44 39 36 36 38 40 41
22 20 20 18 20 20 21 23 22 24 41 54 58 57 59 66 59 56 54 53 52 47 52 58 56 46 44 37 34 33 37 36
23 25 20 19 18 21 28 26 23 39 52 53 51 46 42 40 36 38 43 47 53 53 52 42 44 37 39 38 31 30 31 34
13 13 16 25 23 24 31 42 58 55 45 42 40 38 35 41 44 44 53 46 41 40 37 41 35 34 37 36 28 35 33 30
14 15 25 26 33 40 47 52 46 43 41 39 41 38 35 33 34 38 35 31 31 36 34 34 30 28 32 36 35 25 24 23
15 19 27 34 44 51 58 49 40 38 32 31 31 33 37 35 30 22 23 28 27 27 26 28 32 34 33 34 35 37 37 37
17 27 37 41 36 36 32 26 25 24 28 28 30 22 17 20 24 25 27 26 28 27 27 28 29 32 34 38 40 38 34 30
Wind_Direction_500mb
16 4 17 3 355 343 344 357 354 357 354 349 348 344 356 356 355 350 330 319 312 306 307 349 23 335 335 198 239 283 311 306
36 25 19 353 349 354 353 358 351 348 346 345 347 354 0 1 355 354 356 358 354 4 7 343 338 310 282 268 279 275 287 292
35 6 357 356 355 353 353 347 347 343 346 354 2 360 1 350 339 341 344 355 350 328 320 322 313 292 287 281 280 276 270 270
14 5 352 353 356 350 344 351 357 356 358 1 354 347 343 345 341 341 334 331 326 324 338 340 336 347 359 329 323 296 220 244
356 349 352 355 343 351 358 359 3 356 352 360 356 353 4 357 356 355 1 6 336 337 17 40 36 32 37 42 57 73 72 54
1 1 344 340 337 342 345 345 359 347 7 4 16 20 17 36 42 52 55 56 63 71 63 44 48 67 64 78 76 68 32 347
356 345 341 340 355 357 346 351 9 14 11 30 24 25 48 65 55 47 43 45 51 46 35 41 56 57 73 41 20 6 46 65
348 350 359 356 15 11 17 27 31 34 34 31 37 51 71 62 40 47 51 51 55 61 64 64 66 72 78 66 69 81 76 73
13 19 24 22 20 20 28 41 49 51 35 44 57 58 65 50 46 49 54 65 72 73 74 73 72 73 77 81 79 73 69 79
26 41 28 26 35 43 48 52 53 54 63 63 66 62 56 60 64 66 65 65 75 80 78 74 75 78 79 75 66 67 66 69
52 46 33 33 40 47 48 68 81 81 74 64 58 59 57 60 70 70 71 70 68 68 74 75 74 75 75 84 79 69 76 77
45 27 25 49 58 50 59 94 81 70 63 56 49 49 47 58 70 68 79 75 77 77 78 83 87 97 99 86 84 91 91 84
41 36 40 77 64 53 59 105 79 61 59 59 53 45 53 69 81 89 85 85 96 95 91 88 87 81 72 66 64 64 68 67
44 47 61 79 63 68 81 84 67 61 62 68 67 71 76 91 104 97 92 92 95 92 77 75 68 63 58 57 62 69 71 69
97 81 71 76 72 66 77 102 69 75 91 93 87 85 91 108 96 91 87 80 74 72 66 66 62 75 68 62 56 67 85 65
89 81 72 58 80 77 86 110 89 102 110 102 89 84 91 86 88 82 87 85 86 78 75 64 70 76 64 66 68 75 76 74
103 94 57 72 84 98 103 113 113 104 98 90 80 76 78 77 103 91 89 85 82 73 70 83 70 62 60 59 64 68 67 58
86 74 77 78 91 105 115 126 105 98 95 100 101 100 95 97 101 90 90 80 64 68 70 61 41 21 26 35 46 47 42 42
86 75 93 108 110 116 121 110 99 102 100 108 104 107 97 90 82 75 74 80 82 82 70 52 48 47 43 41 43 48 50 49
74 107 121 118 118 118 126 110 79 78 89 92 91 89 78 65 79 95 106 86 82 79 76 63 51 51 49 47 44 40 38 38
Wind_Speed_850mb
16 19 17 20 20 24 34 31 36 35 35 38 37 35 34 35 26 20 18 21 25 25 23 13 7 5 3 5 6 8 14 20
15 17 17 27 33 32 36 32 35 37 40 41 33 27 31 32 28 25 22 20 19 13 12 9 8 5 8 15 18 20 18 15
19 24 28 31 35 33 31 39 39 37 36 32 33 33 35 39 35 24 21 18 12 12 17 17 15 16 20 24 28 26 22 16
23 23 30 35 34 35 38 36 34 31 28 24 27 35 39 37 28 20 22 15 12 13 17 17 13 14 12 14 12 5 7 6
28 28 29 28 30 34 32 28 31 32 24 28 40 46 35 33 27 20 20 21 13 12 17 19 19 18 19 18 15 12 10 6
25 21 21 25 27 31 29 25 25 32 25 34 37 36 35 36 35 28 26 25 26 23 23 21 17 15 18 22 18 11 9 13
21 23 26 27 26 31 27 24 22 22 30 34 34 30 32 38 41 36 30 26 24 23 24 24 20 15 11 9 11 13 11 15
25 24 23 27 32 33 24 25 27 30 30 31 29 31 29 32 32 32 33 34 28 25 27 29 29 28 26 25 24 29 22 21
25 24 28 28 28 27 25 24 26 26 27 25 27 31 29 28 28 35 38 39 40 39 40 41 41 41 39 37 34 33 30 28
22 24 27 26 27 29 28 28 28 27 26 26 33 32 30 31 34 35 35 35 38 40 41 40 38 39 40 39 38 36 33 33
21 25 29 29 23 24 26 33 34 33 40 42 41 36 32 28 28 31 32 33 32 31 32 31 36 37 44 56 50 54 51 59
21 20 26 25 28 26 26 32 27 27 30 32 32 32 31 28 27 32 33 33 35 42 47 47 55 67 55 52 54 61 61 58
15 22 22 22 24 24 24 30 26 24 29 29 25 24 24 28 41 49 55 58 73 79 77 67 57 52 47 42 38 36 34 36
11 16 18 16 18 21 22 25 19 27 30 39 38 39 38 47 56 59 60 61 62 55 51 55 48 44 39 36 36 38 40 41
22 20 20 18 20 20 21 23 22 24 41 54 58 57 59 66 59 56 54 53 52 47 52 58 56 46 44 37 34 33 37 36
23 25 20 19 18 21 28 26 23 39 52 53 51 46 42 40 36 38 43 47 53 53 52 42 44 37 39 38 31 30 31 34
13 13 16 25 23 24 31 42 58 55 45 42 40 38 35 41 44 44 53 46 41 40 37 41 35 34 37 36 28 35 33 30
14 15 25 26 33 40 47 52 46 43 41 39 41 38 35 33 34 38 35 31 31 36 34 34 30 28 32 36 35 25 24 23
15 19 27 34 44 51 58 49 40 38 32 31 31 33 37 35 30 22 23 28 27 27 26 28 32 34 33 34 35 37 37 37
17 27 37 41 36 36 32 26 25 24 28 28 30 22 17 20 24 25 27 26 28 27 27 28 29 32 34 38 40 38 34 30
Wind_Direction_850mb
16 4 17 3 355 343 344 357 354 357 354 349 348 344 356 356 355 350 330 319 312 306 307 349 23 335 335 198 239 283 311 306
36 25 19 353 349 354 353 358 351 348 346 345 347 354 0 1 355 354 356 358 354 4 7 343 338 310 282 268 279 275 287 292
35 6 357 356 355 353 353 347 347 343 346 354 2 360 1 350 339 341 344 355 350 328 320 322 313 292 287 281 280 276 270 270
14 5 352 353 356 350 344 351 357 356 358 1 354 347 343 345 341 341 334 331 326 324 338 340 336 347 359 329 323 296 220 244
356 349 352 355 343 351 358 359 3 356 352 360 356 353 4 357 356 355 1 6 336 337 17 40 36 32 37 42 57 73 72 54
1 1 344 340 337 342 345 345 359 347 7 4 16 20 17 36 42 52 55 56 63 71 63 44 48 67 64 78 76 68 32 347
356 345 341 340 355 357 346 351 9 14 11 30 24 25 48 65 55 47 43 45 51 46 35 41 56 57 73 41 20 6 46 65
348 350 359 356 15 11 17 27 31 34 34 31 37 51 71 62 40 47 51 51 55 61 64 64 66 72 78 66 69 81 76 73
13 19 24 22 20 20 28 41 49 51 35 44 57 58 65 50 46 49 54 65 72 73 74 73 72 73 77 81 79 73 69 79
26 41 28 26 35 43 48 52 53 54 63 63 66 62 56 60 64 66 65 65 75 80 78 74 75 78 79 75 66 67 66 69
52 46 33 33 40 47 48 68 81 81 74 64 58 59 57 60 70 70 71 70 68 68 74 75 74 75 75 84 79 69 76 77
45 27 25 49 58 50 59 94 81 70 63 56 49 49 47 58 70 68 79 75 77 77 78 83 87 97 99 86 84 91 91 84
41 36 40 77 64 53 59 105 79 61 59 59 53 45 53 69 81 89 85 85 96 95 91 88 87 81 72 66 64 64 68 67
44 47 61 79 63 68 81 84 67 61 62 68 67 71 76 91 104 97 92 92 95 92 77 75 68 63 58 57 62 69 71 69
97 81 71 76 72 66 77 102 69 75 91 93 87 85 91 108 96 91 87 80 74 72 66 66 62 75 68 62 56 67 85 65
89 81 72 58 80 77 86 110 89 102 110 102 89 84 91 86 88 82 87 85 86 78 75 64 70 76 64 66 68 75 76 74
103 94 57 72 84 98 103 113 113 104 98 90 80 76 78 77 103 91 89 85 82 73 70 83 70 62 60 59 64 68 67 58
86 74 77 78 91 105 115 126 105 98 95 100 101 100 95 97 101 90 90 80 64 68 70 61 41 21 26 35 46 47 42 42
86 75 93 108 110 116 121 110 99 102 100 108 104 107 97 90 82 75 74 80 82 82 70 52 48 47 43 41 43 48 50 49
74 107 121 118 118 118 126 110 79 78 89 92 91 89 78 65 79 95 106 86 82 79 76 63 51 51 49 47 44 40 38 38